Погода Казанская

Погода Казанская : погода сейчас, прогноз погоды и архив. Всё, что Вы хотите узнать о погоде Казанская!

Хотите узнать прогноз погоды Казанская? Тогда Вам сюда: Погода Казанская

Поиск расширенной информации на нашем сайте:

Другие новости

Новости СМИ2

Главная страница сайта

Новости сайта

02.10.2013

Напоминаем, что на нашем новом сайте вы можете получить высокодетализированные прогнозы погоды по пунктам России, СНГ и мира (включающие важные для авиации метеовеличины, такие как направление и скорость ветра, видимость, явления погоды, количество и форма облачности, нижняя и верхняя граница облачности), а также ознакомиться с разнообразными материалами по авиационной метеорологии и подборкой полезных ссылок на эту тему.

Сайт Метеоцентр.Азия посвящён разработке технологий оптимизации авиаметеорологического обслуживания, включая проектирование и перспективное создание нескольких автоматизированных авиаметеорологических систем:
- система выпуска высокодетальных прогностических карт явлений погоды для нижнего воздушного пространства по России и ближнему зарубежью;
- система верификации прогнозов TAF (выпускаемых синоптиками официальных АМСГ РФ и ближнего зарубежья) и AUTOTAF (выпускаемых сайтом Метеоцентр.Азия) - выявление ошибок, онлайн-сопоставление с фактической погодой METAR, автоматическое внесение коррективов в прогнозы при резком отклонении фактической погоды от прогноза, подсчёт оправдываемости прогнозов по элементам и в целом;
- система обработки, анализа и отображения авиаметеорологической информации для применения провайдерами метеорологической информации.

Рекомендуем: Байховый чай от паразитов, оплата и доставка по Питеру

Погода Казанская - сегодня

Время (UTC), дата Ветер
(°,м/с) 
Видим.   Явления Облачность Т
(°С)
Тd
(°С)
f(%) Тe
(°С)
Pmin
(гПа)
dP
(гПа)
Po
(мм)
O2
(г/м3)
Тmin Tmax R s Состояние
почвы
09 18.01.17 010 (С) 20000 м    10/10 600 м 
[Sc]
-3.6 -5.8 85 -3  1036  0.6  770  315           
12 18.01.17 350 (С) 20000 м    10/10 600 м 
[Sc]
-3.1 -5.3 85 -3  1035.7  -0.2  770  314           
15 18.01.17 340 (С) 20000 м    9/9 600 м 
[Sc]
-3.9 -7.7 75 -5  1036.8  771  316    -2.9       
18 18.01.17 360 (С) 20000 м    10/10 600 м 
[Sc]
-4.6 -7.7 79 -6  1037.1  0.3  771  317           
21 18.01.17 010 (С) 20000 м    10/10 600 м 
[Sc]
-5.1 -7.3 85 -6  1037.1  0.1  771  317           
00 19.01.17 010 (С) 20000 м    10/10 600 м 
[Sc]
-5.3 -7.9 82 -7  1036.7  -0.3  771  317           
03 19.01.17 360 (С) 20000 м    10/10 600 м 
[Sc]
-5.7 -8 84 -5  1036.6  0.1  770  318  -5.7      15  равномерный
сухой снег
100% 
06 19.01.17 350 (С) 20000 м    9/9 600 м 
[Sc]
-5.9 -8.2 84 -6  1037.1  0.4  771  318  -6         
09 19.01.17 260 (З) 20000 м    9/9 600 м 
[Sc]
-4.7 -7.6 80 -6  1036.6  -0.4  770  317           
12 19.01.17 250 (З) 20000 м    3/3 1000 м 
[Sc]
-4.1 -7.8 75 -5  1035.2  -1.4  769  316           
15 19.01.17 290 (З) 20000 м    ясно 
-8.8 -10.3 89 -10  1034.6  -0.7  769  321    -3.4       
18 19.01.17 310 (СЗ) 20000 м    ясно 
-10.1 -11.8 87 -12  1033.5  -1.1  768  323           
21 19.01.17 300 (СЗ) 20000 м    ясно 
-10.8 -12.8 85 -13  1032.3  -1.2  767  323           
00 20.01.17 270 (З) 20000 м    ясно 
-10.8 -12.9 84 -14  1030.2  -2.1  766  322           
03 20.01.17 280 (З) 20000 м    ясно 
-10.7 -12.9 84 -14  1027.8  -2.4  764  322  -11.7      15  равномерный
сухой снег
100% 
06 20.01.17 260 (З) 4{10}  20000 м    9/8 600 м средняя 
[Sc|Ac trans]
-9.9 -12 85 -14  1026.2  -1.5  763  320           
09 20.01.17 250 (З) 5-10{12}  20000 м    9/6 600 м средняя 
[Sc|Ac trans]
-8 -10.8 80 -12  1023.1  -3  760  317           
12 20.01.17 260 (З) 3{10}  20000 м    10/0 средняя 
[As op]
-7.4 -9.5 85 -10  1021.8  -1.2  759  316           
15 20.01.17 280 (З) 4{10}  20000 м    10/0 средняя 
[As op]
-6.6 -8.7 85 -10  1020.8  -0.9  759  314    -6.6       
18 20.01.17 280 (З) 20000 м    10/10 600 м 
[Sc]
-5.7 -6.9 91 -8  1020.8  759  313           
21 20.01.17 280 (З) 20000 м    10/10 600 м 
[Sc]
-5 -7.1 85 -6  1020  -0.8  758  312           
00 21.01.17 270 (З) 20000 м    10/10 600 м 
[Sc]
-4.8 -6.1 91 -6  1019.7  758  312           
03 21.01.17 270 (З) 20000 м    10/10 600 м 
[Sc]
-4.3 -5.7 90 -6  1018.4  -1.3  757  311  -6.6         
06 21.01.17 270 (З) 20000 м    10/10 600 м 
[Sc]
-3.8 -5.3 89 -6  1017.6  -0.7  756  310  -5.1         
09 21.01.17 260 (З) 20000 м    10/10 600 м 
[Sc]
-2.5 -4.5 86 -5  1016.2  -1.3  755  308           
Время (UTC), дата Ветер
(°,м/с) 
Видим.   Явления Облачность Т
(°С)
Тd
(°С)
f(%) Тe
(°С)
Pmin
(гПа)
dP
(гПа)
Po
(мм)
O2
(г/м3)
Тmin Tmax R s Состояние
почвы

Для получения пояснительной информации подведите курсор к названию столбца.

ПОГОДА Казанская - архив

Всё, что Вы хотите узнать о погоде Казанская - удобно и подробно!

Выберите нужную дату (начиная с 1 января 2015* года) и нажмите кнопку "Найти".
Будут отображены архивные сводки погоды по пункту Казанская, начиная с указанной даты.


Отображать данные в формате CSV (для использования в таблицах Excel)


Внимание! Наш архив погоды предназначен исключительно для личного некоммерческого использования в познавательных целях. Если Вам необходимы официальные справки о состоянии погоды (для производственных, юридических, коммерческих и т.п. целей), обращайтесь в органы Росгидромета.

*Примечание: данная дата относится к архиву по метеостанциям СССР (Россия, СНГ, Балтия).
Архив по метеостанциям Зарубежной Европы и Азии (кроме Китая) хранится 10 дней, по другим регионам земного шара (Китай, Африка, Америка, Австралия, Океания) - 1 день.

Казанская - район местоположения метеостанции


Название, широта, долгота, высота метеостанции:
Казанская 49.8°ш. 41.2°д. 72 м над ур. моря [Российская Федерация]

Дополнительная информация

В oтличие oт бoльшинства пoгoдных сайтoв мы публикуем пoдрoбную метеoинфoрмацию в детальнoм прoфессиoнальнoм фoрмате.

Характеристики температуры и влажнoсти вoздуха измеряются на высoте 2 м в тени вдали oт зданий и деревьев.
Скoрoсть ветра измеряется на высoте 10 м (на урoвне рoста челoвека скoрoсть ветра ниже в 1.5-2 раза). Если метеoстанция нахoдится в гoрoде или в лесу, тo скoрoсть ветра занижена на 2-4 м/с пo сравнению с oткрытым местoм. Скoрoсть ветра над акватoриями крупных рек и oзёр, а также на вершинах хoлмoв на 2-5 м/с выше, чем в oбычных услoвиях.
Атмoсфернoе давление в разных тoчках местнoсти мoжет значительнo oтличаться oт давления на метеoстанции, в зависимoсти oт услoвий рельефа (при пoдъёме на 10 м давление пoнижается примернo на 1 мм рт.ст.).